Location: Detroit
(42.3310°N, 83.0460°W)
Time: 22:11:00
(UTC-05:00)

Tiangong - Visible Passes

Search period start: 05 December 2021 00:00
Search period end: 15 December 2021 00:00
Orbit: 380 x 384 km, 41.5° (Epoch: 05 December)

Date Brightness Start Highest point End Pass type
(mag) Time Alt. Az. Time Alt. Az. Time Alt. Az.
06 Dec 3.8 19:01:07 10° S 19:01:35 12° S 19:01:35 12° S visible
07 Dec 4.3 19:36:04 10° SW 19:36:17 11° SW 19:36:17 11° SW visible
08 Dec 2.6 18:36:00 10° SSW 18:38:35 23° SSE 18:38:44 23° SSE visible
09 Dec 3.4 17:36:21 10° S 17:38:14 15° SSE 17:40:08 10° ESE visible
09 Dec 3.0 19:11:31 10° WSW 19:13:17 28° SW 19:13:17 28° SW visible
10 Dec 2.1 18:11:10 10° SW 18:14:05 35° SSE 18:15:37 21° ESE visible
10 Dec 4.6 19:47:32 10° W 19:47:46 12° W 19:47:46 12° W visible
11 Dec 1.2 18:46:58 10° WSW 18:50:02 65° S 18:50:02 65° S visible
12 Dec 1.7 17:46:27 10° WSW 17:49:31 49° SSE 17:52:17 12° E visible
12 Dec 3.5 19:23:03 10° W 19:24:26 24° W 19:24:26 24° W visible
13 Dec 1.1 18:22:23 10° W 18:25:33 75° S 18:26:41 36° E visible
14 Dec 1.7 18:58:26 10° W 19:01:04 55° WSW 19:01:04 55° WSW visible
